Location: Mountain_View
(35.6670°N, 81.4000°W)
Time: 12:55:12
(UTC-04:00)

Amateur Radio Satellites - All Passes

Search period start: 30 April 2016 12:25
Search period end: 01 May 2016 12:25
Location: Mountain_View, 35.6670°N, 81.4000°W

Satellite Date Start Highest point End Downlink Frequencies (MHz)
Time Altitude Azimuth
BUGSAT 1 30 Apr 12:31:19 12:35:29 65° 75° (ENE) 12:39:43 437.445
DELFI C3 30 Apr 12:34:20 12:34:51 10° 294° (WNW) 12:35:22 145.870
SPROUT 30 Apr 12:41:17 12:43:43 15° 93° (E) 12:46:08 437.525
JAS-2 30 Apr 12:50:46 12:55:37 28° 65° (ENE) 13:00:59 435.910
50 SAT 30 Apr 12:59:24 13:03:03 83° 283° (WNW) 13:06:43 437.505
CUBEBUG 1 30 Apr 13:02:06 13:06:33 78° 102° (ESE) 13:10:58 437.445
HUMSAT D 30 Apr 13:07:09 13:08:02 11° 294° (WNW) 13:08:54 437.325/437.525
QB50P2 30 Apr 13:10:46 13:13:37 17° 266° (W) 13:16:28 145.880/145.840
POLYITAN 1 30 Apr 13:12:56 13:15:44 17° 266° (W) 13:18:33 437.675
DUCHIFAT 1 30 Apr 13:14:19 13:17:15 18° 266° (W) 13:20:12 145.980
AIST 1 30 Apr 13:15:12 13:19:23 43° 268° (W) 13:23:32
POPSAT HIP 1 30 Apr 13:16:30 13:19:08 16° 266° (W) 13:21:48 437.405
QB50P1 30 Apr 13:20:24 13:22:42 14° 267° (W) 13:25:01 145.935-145.965
Oscar 19 30 Apr 13:21:43 13:26:11 31° 69° (ENE) 13:30:40 437.125/150
VELOX 1 30 Apr 13:21:49 13:26:15 62° 285° (WNW) 13:30:38 145.980
TISAT 1 30 Apr 13:26:19 13:28:21 13° 93° (E) 13:30:23 437.305
DX 1 30 Apr 13:28:40 13:32:59 57° 286° (WNW) 13:37:16 434.975-435.025
AO-85 30 Apr 13:35:35 13:40:51 53° 115° (ESE) 13:46:09 145.980
PHONESAT 2.4 30 Apr 13:37:44 13:40:41 34° 354° (N) 13:43:37 2401.200-2431.200
UKube-1 30 Apr 13:40:29 13:44:41 51° 287° (WNW) 13:48:53 .
GONETS M04 30 Apr 13:46:46 13:55:06 50° 271° (W) 14:03:20
Cosmos 2499 30 Apr 13:50:03 13:57:48 82° 265° (W) 14:06:10 435.465 / 435.565
AISAT 30 Apr 13:54:07 13:57:48 26° 290° (WNW) 14:01:29 437.250
ESTCUBE 1 30 Apr 14:01:55 14:04:50 17° 293° (WNW) 14:07:44 437.505/2401.250
SPROUT 30 Apr 14:15:49 14:19:49 39° 287° (WNW) 14:23:47 437.525
Gurwin Techsat 1B 30 Apr 14:32:18 14:37:31 60° 74° (ENE) 14:42:45 435.225
ITAMSAT 1 30 Apr 14:34:28 14:38:39 25° 68° (ENE) 14:42:50 435.822/435.867
JAS-2 30 Apr 14:35:10 14:40:25 38° 264° (W) 14:46:20 435.910
ISS 30 Apr 14:48:25 14:50:39 17° 29° (NNE) 14:52:54 145.825
TISAT 1 30 Apr 15:00:12 15:04:11 42° 287° (WNW) 15:08:08 437.305
Oscar 19 30 Apr 15:01:04 15:05:25 27° 264° (W) 15:09:49 437.125/150
O/OREOS (USA 219) 30 Apr 15:08:53 15:12:28 23° 101° (ESE) 15:16:03 437.305
ITUPSAT 1 30 Apr 15:09:03 15:13:23 34° 98° (E) 15:17:42 437.325
PHONESAT 2.4 30 Apr 15:14:56 15:17:57 39° 10° (N) 15:20:57 2401.200-2431.200
AO-85 30 Apr 15:17:24 15:21:39 23° 311° (NW) 15:25:52 145.980
AO-7 30 Apr 15:19:42 15:27:05 38° 63° (ENE) 15:34:28 29.400- 29.500
SWISSCUBE 30 Apr 15:19:45 15:24:24 51° 100° (E) 15:29:01 437.505
Cosmos 2499 30 Apr 15:47:14 15:49:47 12° 281° (W) 15:52:23 435.465 / 435.565
BEESAT 30 Apr 15:53:14 15:58:00 76° 285° (WNW) 16:02:44 436.000
ITAMSAT 1 30 Apr 16:13:17 16:17:55 34° 262° (W) 16:22:36 435.822/435.867
Gurwin Techsat 1B 30 Apr 16:15:02 16:17:48 14° 268° (W) 16:20:35 435.225
ISS 30 Apr 16:24:08 16:27:20 52° 225° (SW) 16:30:30 145.825
CUSAT 1 30 Apr 16:28:31 16:31:33 65° 281° (W) 16:35:25 437.405
PCSat 30 Apr 16:45:44 16:51:08 77° 115° (ESE) 16:56:34 145.827
ITUPSAT 1 30 Apr 16:47:23 16:50:59 22° 292° (WNW) 16:54:34 437.325
DANDE 30 Apr 16:47:37 16:50:13 58° 96° (E) 16:53:16 436.750
O/OREOS (USA 219) 30 Apr 16:47:40 16:51:40 29° 296° (WNW) 16:55:42 437.305
MOZHAYETS 4 30 Apr 16:48:16 16:52:19 31° 97° (E) 16:56:21
SO-50 30 Apr 16:50:04 16:54:03 26° 51° (NE) 16:57:55 436.795
PHONESAT 2.4 30 Apr 16:51:47 16:54:56 58° 205° (SSW) 16:58:02 2401.200-2431.200
SWISSCUBE 30 Apr 16:59:06 17:01:44 15° 295° (WNW) 17:04:22 437.505
Cosmos 2491 30 Apr 17:02:43 17:04:42 11° 61° (ENE) 17:06:41 435.465 / 435.565
KKS-1 30 Apr 17:04:15 17:08:45 78° 103° (ESE) 17:13:11 437.445
AO-7 30 Apr 17:11:51 17:19:38 45° 259° (W) 17:27:29 29.400- 29.500
NOAA 18 30 Apr 17:15:49 17:18:01 12° 61° (ENE) 17:20:13 137.9125
HORYU 2 30 Apr 17:26:30 17:30:59 84° 258° (WSW) 17:35:29 437.375
CUTE-I 30 Apr 17:27:02 17:27:35 10° 60° (ENE) 17:28:08 437.470
STARS 30 Apr 17:28:09 17:32:34 73° 101° (ESE) 17:36:56 437.465
Cubesat XI-IV 30 Apr 18:06:17 18:10:39 26° 68° (ENE) 18:15:01 437.490
GOMX 1 30 Apr 18:06:55 18:07:32 10° 61° (ENE) 18:08:08 467.674
NOAA 15 30 Apr 18:12:59 18:18:00 47° 71° (ENE) 18:23:02 137.62
BRITE-PL 30 Apr 18:16:07 18:20:01 26° 68° (ENE) 18:24:11 437.365/2234.400
M-CUBED/EXP-1 PRIME 30 Apr 18:22:22 18:25:45 20° 63° (ENE) 18:29:06 437.505
MOZHAYETS 4 30 Apr 18:25:49 18:29:17 22° 291° (WNW) 18:32:44
CUBESAT XI-V 30 Apr 18:25:58 18:30:20 38° 98° (E) 18:34:42 437.345
SO-50 30 Apr 18:30:25 18:34:30 30° 248° (WSW) 18:38:27 436.795
PCSat 30 Apr 18:32:04 18:35:08 15° 312° (NW) 18:38:12 145.827
AUBIESAT-1 30 Apr 18:42:48 18:46:39 26° 65° (ENE) 18:50:28 437.475
BEESAT 3 30 Apr 18:45:16 18:47:58 18° 110° (ESE) 18:50:41 437.485
LilacSat-2 30 Apr 18:47:33 18:51:22 55° 76° (ENE) 18:55:10 437.200
BEESAT 2 30 Apr 18:49:26 18:50:25 11° 108° (ESE) 18:51:24 435.950
NOAA 18 30 Apr 18:52:24 18:57:56 81° 258° (WSW) 19:03:28 137.9125
Cosmos 2491 30 Apr 18:54:29 19:03:17 69° 81° (E) 19:11:59 435.465 / 435.565
JUGNU 30 Apr 18:56:36 18:58:08 11° 166° (SSE) 18:59:40 437.505
CUTE-I 30 Apr 19:01:28 19:06:48 90° 116° (ESE) 19:12:09 437.470
YUBILEINY 30 Apr 19:04:00 19:11:45 37° 86° (E) 19:19:29 435.215
GOMX 1 30 Apr 19:39:50 19:44:41 85° 258° (WSW) 19:49:56 467.674
Cubesat XI-IV 30 Apr 19:45:43 19:50:31 34° 262° (W) 19:55:21 437.490
DOVE 4 30 Apr 19:48:33 19:53:27 58° 74° (ENE) 19:58:35 437.250
BRITE-PL 30 Apr 19:54:24 19:58:22 28° 266° (W) 20:02:38 437.365/2234.400
NOAA 15 30 Apr 19:54:26 19:57:58 18° 266° (W) 20:01:32 137.62
M-CUBED/EXP-1 PRIME 30 Apr 19:55:30 19:59:56 42° 257° (WSW) 20:04:25 437.505
CANX-2 30 Apr 19:55:51 19:58:56 20° 69° (ENE) 20:02:02 2200.000
CUBESAT XI-V 30 Apr 20:04:08 20:07:24 19° 292° (WNW) 20:10:41 437.345
AUBIESAT-1 30 Apr 20:16:54 20:20:56 29° 259° (WSW) 20:25:01 437.475
Cosmos 2504 30 Apr 20:19:44 20:25:22 24° 85° (E) 20:30:51 435.465 / 435.565
STRAND 1 30 Apr 20:19:46 20:24:43 49° 100° (E) 20:29:39 437.568
HO-68 30 Apr 20:20:30 20:27:26 56° 70° (ENE) 20:34:23 435.675
CUBEBUG 2 30 Apr 20:20:46 20:22:45 13° 65° (ENE) 20:24:43 437.445
BEESAT 3 30 Apr 20:21:55 20:25:25 31° 305° (NW) 20:28:58 437.485
BEESAT 2 30 Apr 20:23:55 20:27:47 51° 302° (WNW) 20:31:41 435.950
CUTE 1.7 + AOD 2 30 Apr 20:28:06 20:32:04 41° 74° (ENE) 20:36:03 437.475
JUGNU 30 Apr 20:42:46 20:46:21 16° 176° (S) 20:49:58 437.505
RS-15 30 Apr 20:45:27 20:51:55 17° 98° (E) 20:58:31 29.354- 29.394
CINEMA 3 30 Apr 20:50:09 20:55:07 82° 77° (ENE) 21:00:10 145.822/145.860
Cosmos 2491 30 Apr 20:53:00 20:59:13 22° 279° (W) 21:05:24 435.465 / 435.565
ZACube-1 30 Apr 20:54:50 20:56:54 13° 66° (ENE) 20:58:58 437.345
PRISM 30 Apr 20:57:23 21:00:36 21° 96° (E) 21:03:48 437.425
SEEDS 30 Apr 20:59:40 21:03:50 74° 76° (ENE) 21:07:59 437.485
YUBILEINY 30 Apr 21:00:11 21:08:20 42° 284° (WNW) 21:16:30 435.215
COMPASS 1 30 Apr 21:07:40 21:11:45 64° 76° (ENE) 21:15:50 437.405
DOVE 4 30 Apr 21:28:57 21:31:31 14° 270° (W) 21:34:09 437.250
CANX-2 30 Apr 21:30:57 21:34:36 28° 264° (W) 21:38:15 2200.000
AIST 2 30 Apr 21:35:19 21:39:21 57° 117° (ESE) 21:43:25 435.215
SRMSAT 30 Apr 21:38:25 21:41:11 13° 169° (S) 21:43:57 437.500
Oscar 11 30 Apr 21:39:36 21:43:43 46° 74° (ENE) 21:47:51 145.826/435.025
DELFI C3 30 Apr 21:40:31 21:43:25 20° 70° (ENE) 21:46:21 145.870
AAUSAT CUBESAT 2 30 Apr 21:40:58 21:45:02 61° 259° (W) 21:49:07 437.432
FUNcube-1 30 Apr 21:47:25 21:51:46 47° 74° (ENE) 21:56:05 145.935
UWE-3 30 Apr 21:51:48 21:56:28 87° 77° (ENE) 22:01:05 435.000/436.395/437.385
CUBEBUG 2 30 Apr 21:54:06 21:58:49 62° 260° (W) 22:03:30 437.445
STRAND 1 30 Apr 22:00:09 22:03:28 18° 295° (WNW) 22:06:48 437.568
CUTE 1.7 + AOD 2 30 Apr 22:06:03 22:08:05 13° 267° (W) 22:10:08 437.475
HO-68 30 Apr 22:09:51 22:15:25 24° 265° (W) 22:21:02 435.675
Cosmos 2504 30 Apr 22:11:09 22:18:15 50° 281° (W) 22:25:11 435.465 / 435.565
AO-85 30 Apr 22:11:36 22:15:11 21° 48° (NE) 22:18:32 145.980
HUMSAT D 30 Apr 22:17:34 22:21:04 25° 71° (ENE) 22:24:33 437.325/437.525
ZACube-1 30 Apr 22:28:15 22:32:43 54° 260° (W) 22:37:09 437.345
JUGNU 30 Apr 22:31:13 22:34:37 16° 186° (S) 22:38:01 437.505
PRISM 30 Apr 22:32:23 22:35:50 26° 290° (WNW) 22:39:18 437.425
RS-15 30 Apr 22:51:10 23:02:22 85° 117° (ESE) 23:14:15 29.354- 29.394
ANTELSAT 30 Apr 22:58:43 23:01:53 20° 94° (E) 23:05:01 437.575/2403.000
AISAT 30 Apr 23:13:13 23:15:57 16° 67° (ENE) 23:18:42 437.250
DELFI C3 30 Apr 23:14:56 23:18:09 24° 264° (W) 23:21:23 145.870
AIST 2 30 Apr 23:16:09 23:18:11 13° 313° (NW) 23:20:14 435.215
Oscar 11 30 Apr 23:18:11 23:20:03 13° 268° (W) 23:21:55 145.826/435.025
ESTCUBE 1 30 Apr 23:21:07 23:24:49 26° 70° (ENE) 23:28:31 437.505/2401.250
SRMSAT 30 Apr 23:25:51 23:29:36 17° 180° (S) 23:33:21 437.500
FUNcube-1 30 Apr 23:25:56 23:28:12 14° 267° (W) 23:30:28 145.935
50 SAT 30 Apr 23:35:35 23:38:40 26° 72° (ENE) 23:41:47 437.505
AO-85 30 Apr 23:51:32 23:55:51 39° 247° (WSW) 23:59:47 145.980
UNISAT 6 30 Apr 23:52:02 23:56:23 89° 106° (ESE) 00:00:39 437.425
HUMSAT D 30 Apr 23:53:17 23:56:37 22° 264° (W) 23:59:56 437.325/437.525
CUBEBUG 1 30 Apr 23:55:03 23:59:10 43° 73° (ENE) 00:03:20 437.445
NANOSAT C BR1 01 May 00:07:09 00:10:22 21° 95° (E) 00:13:32 145.865
TIGRISAT 01 May 00:10:29 00:14:45 58° 285° (WNW) 00:18:55 435.000
VELOX 1 01 May 00:15:50 00:20:14 80° 78° (ENE) 00:24:42 145.980
BUGSAT 1 01 May 00:18:25 00:19:55 12° 92° (E) 00:21:23 437.445
DX 1 01 May 00:20:50 00:25:11 82° 74° (ENE) 00:29:34 434.975-435.025
UKube-1 01 May 00:31:38 00:35:57 89° 71° (ENE) 00:40:18 .
ANTELSAT 01 May 00:34:52 00:38:36 29° 289° (WNW) 00:42:16 437.575/2403.000
Cosmos 2499 01 May 00:36:55 00:38:48 11° 79° (E) 00:40:39 435.465 / 435.565
GONETS M04 01 May 00:47:33 00:55:34 40° 87° (E) 01:03:34
AISAT 01 May 00:47:54 00:52:04 40° 261° (W) 00:56:17 437.250
QB50P2 01 May 00:56:57 01:01:12 85° 286° (WNW) 01:05:25 145.880/145.840
ESTCUBE 1 01 May 00:57:53 01:01:32 24° 264° (W) 01:05:12 437.505/2401.250
POLYITAN 1 01 May 00:59:05 01:03:20 83° 283° (WNW) 01:07:32 437.675
DUCHIFAT 1 01 May 00:59:50 01:04:04 88° 91° (E) 01:08:17 145.980
POPSAT HIP 1 01 May 01:02:20 01:06:35 78° 284° (WNW) 01:10:47 437.405
QB50P1 01 May 01:05:49 01:10:02 70° 285° (WNW) 01:14:13 145.935-145.965
SPROUT 01 May 01:05:49 01:10:07 78° 257° (WSW) 01:14:28 437.525
RS-15 01 May 01:06:49 01:16:24 29° 322° (NW) 01:26:26 29.354- 29.394
50 SAT 01 May 01:10:17 01:12:29 15° 265° (W) 01:14:41 437.505
SRMSAT 01 May 01:15:03 01:18:01 14° 190° (S) 01:20:59 437.500
O/OREOS (USA 219) 01 May 01:21:13 01:25:04 27° 63° (ENE) 01:28:53 437.305
CUSAT 1 01 May 01:23:51 01:26:11 12° 66° (ENE) 01:28:34 437.405
CUBEBUG 1 01 May 01:33:21 01:35:38 14° 267° (W) 01:37:56 437.445
PCSat 01 May 01:36:51 01:41:46 33° 56° (NE) 01:46:36 145.827
Oscar 19 01 May 01:37:41 01:40:06 13° 92° (E) 01:42:29 437.125/150
AIST 1 01 May 01:40:58 01:45:12 63° 278° (W) 01:49:31
NANOSAT C BR1 01 May 01:42:29 01:46:03 27° 289° (WNW) 01:49:35 145.865
JAS-2 01 May 01:46:06 01:53:20 40° 97° (E) 02:00:30 435.910
TISAT 1 01 May 01:48:18 01:52:32 87° 251° (WSW) 01:56:49 437.305
BUGSAT 1 01 May 01:51:29 01:55:31 46° 286° (WNW) 01:59:29 437.445
ITUPSAT 1 01 May 02:13:08 02:17:13 29° 70° (ENE) 02:21:18 437.325
SWISSCUBE 01 May 02:23:19 02:27:47 42° 72° (ENE) 02:32:16 437.505
Cosmos 2499 01 May 02:23:36 02:30:45 90° 257° (WSW) 02:37:52 435.465 / 435.565
GONETS M04 01 May 02:44:07 02:52:15 40° 285° (WNW) 03:00:26
Gurwin Techsat 1B 01 May 02:51:53 02:56:31 30° 97° (E) 03:01:07 435.225
ITAMSAT 1 01 May 02:52:56 02:53:36 10° 91° (E) 02:54:17 435.822/435.867
BEESAT 01 May 02:56:27 03:01:14 88° 70° (ENE) 03:06:00 436.000
O/OREOS (USA 219) 01 May 03:00:43 03:04:18 24° 258° (WSW) 03:07:52 437.305
CUSAT 1 01 May 03:01:55 03:09:09 69° 81° (E) 03:17:12 437.405
Oscar 19 01 May 03:14:38 03:19:47 62° 286° (WNW) 03:24:53 437.125/150
PCSat 01 May 03:20:22 03:25:01 30° 252° (WSW) 03:29:38 145.827
DANDE 01 May 03:24:31 03:30:56 52° 80° (E) 03:38:43 436.750
AO-7 01 May 03:28:01 03:30:28 11° 90° (E) 03:32:54 29.400- 29.500
RS-15 01 May 03:29:09 03:34:54 14° 357° (N) 03:40:44 29.354- 29.394
JAS-2 01 May 03:31:02 03:38:10 41° 292° (WNW) 03:45:21 435.910
MOZHAYETS 4 01 May 03:47:47 03:51:15 22° 69° (ENE) 03:54:43
ITUPSAT 1 01 May 03:51:07 03:54:59 25° 264° (W) 03:58:53 437.325
KKS-1 01 May 03:59:12 04:03:30 48° 73° (ENE) 04:07:50 437.445
SWISSCUBE 01 May 04:02:42 04:05:44 17° 266° (W) 04:08:46 437.505
STARS 01 May 04:21:45 04:25:56 43° 73° (ENE) 04:30:09 437.465
Cosmos 2499 01 May 04:22:20 04:24:51 12° 294° (WNW) 04:27:22 435.465 / 435.565
ITAMSAT 1 01 May 04:28:22 04:33:33 76° 285° (WNW) 04:38:44 435.822/435.867
Gurwin Techsat 1B 01 May 04:31:49 04:36:21 29° 291° (WNW) 04:40:53 435.225
BEESAT 3 01 May 04:41:25 04:45:19 55° 58° (ENE) 04:49:10 437.485
BEESAT 2 01 May 04:44:47 04:48:27 34° 55° (NE) 04:52:05 435.950
CUSAT 1 01 May 04:45:24 04:50:49 22° 273° (W) 04:56:36 437.405
DANDE 01 May 05:08:02 05:13:35 27° 269° (W) 05:19:59 436.750
AO-7 01 May 05:15:57 05:24:19 76° 106° (ESE) 05:32:40 29.400- 29.500
YUBILEINY 01 May 05:19:25 05:23:46 14° 64° (ENE) 05:28:06 435.215
HORYU 2 01 May 05:21:06 05:24:34 22° 96° (E) 05:28:01 437.375
MOZHAYETS 4 01 May 05:24:10 05:28:13 31° 263° (W) 05:32:16
CUBESAT XI-V 01 May 05:26:45 05:30:33 26° 70° (ENE) 05:34:22 437.345
KKS-1 01 May 05:38:12 05:40:18 13° 267° (W) 05:42:23 437.445
RS-15 01 May 05:44:29 05:54:02 25° 34° (NNE) 06:03:37 29.354- 29.394
STARS 01 May 06:00:03 06:02:28 14° 267° (W) 06:04:52 437.465
AIST 2 01 May 06:00:15 06:03:01 17° 50° (NE) 06:05:44 435.215
Cosmos 2491 01 May 06:00:39 06:04:41 14° 77° (ENE) 06:08:42 435.465 / 435.565
BEESAT 2 01 May 06:23:29 06:26:00 16° 250° (WSW) 06:28:31 435.950
BRITE-PL 01 May 06:24:46 06:27:30 14° 90° (E) 06:30:12 437.365/2234.400
Cubesat XI-IV 01 May 06:27:57 06:30:06 12° 91° (E) 06:32:15 437.490
NOAA 15 01 May 06:31:42 06:35:50 23° 95° (E) 06:39:55 137.62
HORYU 2 01 May 06:57:20 07:01:04 27° 290° (WNW) 07:04:48 437.375
SO-50 01 May 07:02:24 07:05:28 17° 108° (ESE) 07:08:33 436.795
CUBESAT XI-V 01 May 07:04:03 07:07:50 25° 264° (W) 07:11:39 437.345
AO-7 01 May 07:10:13 07:16:13 23° 303° (WNW) 07:22:14 29.400- 29.500
YUBILEINY 01 May 07:13:07 07:21:51 84° 84° (E) 07:30:35 435.215
NOAA 18 01 May 07:17:34 07:22:55 55° 101° (ESE) 07:28:14 137.9125
CUTE-I 01 May 07:21:39 07:26:45 45° 100° (E) 07:31:49 437.470
ISS 01 May 07:26:15 07:28:35 18° 129° (SE) 07:30:56 145.825
STRAND 1 01 May 07:32:42 07:37:38 52° 73° (ENE) 07:42:34 437.568
AIST 2 01 May 07:37:46 07:41:40 41° 246° (WSW) 07:45:32 435.215
M-CUBED/EXP-1 PRIME 01 May 07:39:41 07:42:05 16° 97° (E) 07:44:24 437.505
GOMX 1 01 May 07:44:54 07:50:01 40° 97° (E) 07:54:52 467.674
PRISM 01 May 07:46:20 07:47:22 11° 65° (ENE) 07:48:23 437.425
Cosmos 2491 01 May 07:51:17 08:00:06 86° 95° (E) 08:08:59 435.465 / 435.565
DOVE 4 01 May 07:51:42 07:55:33 21° 93° (E) 07:59:12 437.250
RS-15 01 May 07:56:32 08:08:55 77° 59° (ENE) 08:21:12 29.354- 29.394
LilacSat-2 01 May 07:58:02 08:01:48 61° 285° (WNW) 08:05:31 437.200
AUBIESAT-1 01 May 07:59:31 08:02:35 23° 99° (E) 08:05:29 437.475
BRITE-PL 01 May 08:00:43 08:06:25 72° 284° (WNW) 08:11:59 437.365/2234.400
Cubesat XI-IV 01 May 08:05:18 08:10:35 68° 286° (WNW) 08:15:51 437.490
Cosmos 2504 01 May 08:05:29 08:12:47 47° 79° (ENE) 08:20:32 435.465 / 435.565
NOAA 15 01 May 08:10:46 08:15:40 39° 290° (WNW) 08:20:34 137.62
SO-50 01 May 08:40:45 08:45:31 51° 303° (WNW) 08:50:20 436.795
SEEDS 01 May 08:47:51 08:50:15 15° 93° (E) 08:52:39 437.485
CINEMA 3 01 May 08:49:05 08:52:49 24° 94° (E) 08:56:23 145.822/145.860
COMPASS 1 01 May 08:55:17 08:57:05 12° 92° (E) 08:58:52 437.405
NOAA 18 01 May 08:59:34 09:03:05 18° 296° (WNW) 09:06:36 137.9125
ISS 01 May 09:01:51 09:04:51 34° 324° (NW) 09:07:53 145.825
CUTE-I 01 May 09:02:38 09:06:25 20° 295° (WNW) 09:10:12 437.470
YUBILEINY 01 May 09:12:33 09:17:27 17° 281° (W) 09:22:22 435.215
M-CUBED/EXP-1 PRIME 01 May 09:13:19 09:16:44 28° 295° (WNW) 09:19:55 437.505
STRAND 1 01 May 09:14:06 09:17:04 15° 267° (W) 09:20:01 437.568
CANX-2 01 May 09:18:08 09:22:18 58° 100° (E) 09:26:27 2200.000
PRISM 01 May 09:18:13 09:22:11 52° 260° (W) 09:26:11 437.425
GOMX 1 01 May 09:23:31 09:27:45 24° 293° (WNW) 09:31:51 467.674
AAUSAT CUBESAT 2 01 May 09:26:37 09:30:00 24° 96° (E) 09:33:23 437.432
DOVE 4 01 May 09:28:36 09:33:20 37° 289° (WNW) 09:37:48 437.250
Oscar 11 01 May 09:32:40 09:33:17 10° 91° (E) 09:33:54 145.826/435.025
AUBIESAT-1 01 May 09:34:05 09:36:57 20° 297° (WNW) 09:39:41 437.475
HO-68 01 May 09:38:37 09:45:48 77° 104° (ESE) 09:52:57 435.675
UWE-3 01 May 09:45:36 09:48:45 20° 94° (E) 09:51:50 435.000/436.395/437.385
CUBEBUG 2 01 May 09:48:35 09:52:29 32° 97° (E) 09:56:15 437.445
CUTE 1.7 + AOD 2 01 May 09:51:19 09:55:29 62° 284° (WNW) 09:59:39 437.475
Cosmos 2491 01 May 09:52:34 09:58:01 18° 294° (WNW) 10:03:30 435.465 / 435.565
ANTELSAT 01 May 09:55:25 09:57:58 15° 66° (ENE) 10:00:31 437.575/2403.000
Cosmos 2504 01 May 09:59:27 10:05:48 30° 273° (W) 10:12:31 435.465 / 435.565
RS-15 01 May 10:10:41 10:20:10 27° 258° (WSW) 10:29:37 29.354- 29.394
ZACube-1 01 May 10:19:57 10:23:46 33° 97° (E) 10:27:31 437.345
SEEDS 01 May 10:22:13 10:26:04 36° 287° (WNW) 10:29:54 437.485
CINEMA 3 01 May 10:26:00 10:29:53 27° 290° (WNW) 10:33:37 145.822/145.860
COMPASS 1 01 May 10:28:53 10:32:50 42° 286° (WNW) 10:36:46 437.405
UNISAT 6 01 May 10:47:21 10:51:55 55° 74° (ENE) 10:56:25 437.425
DELFI C3 01 May 10:54:42 10:58:33 49° 99° (E) 11:02:25 145.870
CANX-2 01 May 10:56:57 10:57:37 10° 295° (WNW) 10:58:18 2200.000
NANOSAT C BR1 01 May 10:58:17 10:59:45 12° 65° (ENE) 11:01:14 145.865
PHONESAT 2.4 01 May 11:00:25 11:03:27 46° 152° (SSE) 11:06:29 2401.200-2431.200
AAUSAT CUBESAT 2 01 May 11:02:08 11:05:21 22° 290° (WNW) 11:08:35 437.432
GONETS M04 01 May 11:03:02 11:07:58 16° 65° (ENE) 11:12:51
TIGRISAT 01 May 11:05:23 11:10:04 83° 77° (ENE) 11:14:43 435.000
Oscar 11 01 May 11:05:30 11:09:42 55° 285° (WNW) 11:13:54 145.826/435.025
FUNcube-1 01 May 11:14:37 11:18:42 52° 285° (WNW) 11:22:42 145.935
UWE-3 01 May 11:21:36 11:25:12 27° 289° (WNW) 11:28:43 435.000/436.395/437.385
CUBEBUG 2 01 May 11:25:56 11:28:49 18° 292° (WNW) 11:31:39 437.445
HO-68 01 May 11:28:04 11:32:42 19° 301° (WNW) 11:37:21 435.675
ANTELSAT 01 May 11:29:42 11:34:14 49° 260° (W) 11:38:44 437.575/2403.000
HUMSAT D 01 May 11:38:35 11:42:40 71° 101° (E) 11:46:43 437.325/437.525
QB50P2 01 May 11:46:25 11:50:31 47° 74° (ENE) 11:54:39 145.880/145.840
POLYITAN 1 01 May 11:48:31 11:52:39 48° 74° (ENE) 11:56:48 437.675
DUCHIFAT 1 01 May 11:48:38 11:52:40 42° 73° (ENE) 11:56:42 145.980
AIST 1 01 May 11:51:31 11:55:02 23° 76° (ENE) 11:58:31
POPSAT HIP 1 01 May 11:51:35 11:55:44 51° 74° (ENE) 11:59:55 437.405
QB50P1 01 May 11:54:57 11:59:08 57° 75° (ENE) 12:03:21 145.935-145.965
ZACube-1 01 May 11:57:06 11:59:46 17° 292° (WNW) 12:02:23 437.345
VELOX 1 01 May 12:09:51 12:13:01 19° 95° (E) 12:16:10 145.980
DX 1 01 May 12:13:01 12:15:59 18° 95° (E) 12:18:57 434.975-435.025
